Cloud_Cover
18 23 22 28 6 23 26 54 100 100 50 72 24 7 34 77 6 5 1 0 0 0 0 0 0 0 0 0 0 0 1 4 5 4 0 0 1 0 0 0 0 4 100 82 96
18 22 25 24 27 19 43 8 100 100 80 12 42 44 49 25 13 8 4 0 0 0 0 0 3 0 0 0 0 0 0 5 3 1 2 0 4 22 5 2 0 0 13 71 50
51 24 25 40 96 83 94 92 36 100 100 63 100 100 14 14 5 18 5 5 5 0 0 0 0 0 0 0 0 0 0 5 0 0 0 4 38 89 5 1 0 0 0 0 0
9 26 19 40 100 100 100 93 56 100 100 100 79 82 100 100 100 67 10 0 0 0 3 0 0 0 0 0 0 0 0 3 0 0 0 0 5 5 2 1 0 0 0 0 0
46 32 27 39 100 100 100 40 14 80 100 90 8 5 20 100 8 5 90 83 7 0 5 3 0 0 0 0 0 0 0 0 0 0 0 0 1 3 0 0 0 0 0 0 0
53 13 24 36 100 100 100 85 87 69 58 59 100 90 29 14 0 5 5 2 5 0 0 0 0 0 0 0 0 0 0 0 0 0 3 0 0 0 5 0 0 0 0 0 0
9 17 20 29 93 100 100 100 50 5 5 5 5 8 46 56 3 4 5 5 5 4 0 0 0 0 0 0 0 0 0 0 0 0 4 0 0 0 0 0 0 0 0 0 0
0 15 20 14 23 83 83 81 33 5 5 5 5 5 5 5 5 4 0 5 3 1 3 0 0 0 0 0 0 0 0 0 0 0 1 1 0 4 0 0 0 0 0 0 0
1 4 5 2 8 2 100 100 100 76 10 5 5 5 5 5 3 5 0 2 5 5 1 0 0 0 0 0 0 0 0 0 0 0 0 0 0 0 2 0 0 0 0 0 0
21 4 0 0 0 3 34 100 100 100 100 99 87 7 25 5 4 5 5 4 5 5 5 5 2 3 0 0 0 0 0 1 0 0 0 0 0 0 0 0 0 0 0 0 0
74 15 29 0 0 0 10 100 100 100 100 100 100 100 5 5 5 5 2 5 5 5 25 5 5 4 0 0 0 0 2 5 0 0 0 1 0 0 0 0 0 0 0 0 0
55 29 7 100 9 0 9 16 100 100 100 100 99 94 79 5 5 5 5 5 5 5 5 5 5 4 2 0 1 0 0 0 0 0 0 0 3 0 0 0 0 0 0 4 15
52 21 5 5 36 65 2 0 13 100 100 79 75 73 68 82 17 5 5 5 5 5 5 5 17 5 5 4 1 0 0 0 0 0 0 0 4 0 0 0 0 0 0 3 5
28 8 0 0 39 47 32 7 0 0 14 62 89 35 5 5 5 2 5 5 5 5 5 5 5 5 5 5 4 0 0 0 0 0 0 4 4 0 0 0 0 0 0 0 1
22 8 0 78 0 5 12 32 62 5 0 3 5 0 0 0 0 4 1 5 5 5 5 5 5 5 5 5 5 1 5 0 0 0 0 0 2 6 0 0 0 0 0 0 0
12 0 0 1 0 0 12 70 35 100 100 100 99 21 5 5 5 3 0 0 1 2 0 3 4 5 5 5 5 4 5 1 1 0 0 0 1 96 4 3 0 0 0 0 0
0 0 25 0 0 0 0 0 11 6 42 76 66 22 5 5 5 3 2 0 2 5 5 4 2 5 5 5 5 5 5 5 0 0 0 0 0 41 27 0 7 1 0 1 0
0 1 0 0 5 3 0 0 0 2 24 30 10 30 59 81 41 9 4 5 5 5 28 79 5 4 5 5 1 1 5 0 0 0 0 4 0 0 4 0 0 0 0 0 0
4 0 0 0 9 17 5 0 0 4 7 97 100 92 91 90 27 25 5 4 4 5 5 12 5 6 5 5 5 0 0 1 0 0 0 0 0 1 8 1 0 0 0 0 0
0 0 0 0 4 100 23 42 2 1 2 8 34 5 5 4 0 0 0 0 0 0 0 4 5 3 0 0 0 5 0 0 2 3 0 4 2 28 27 5 0 0 1 5 4
0 0 0 0 4 98 100 5 84 6 4 0 1 0 0 0 0 0 0 0 0 0 0 0 0 1 0 0 0 0 0 0 0 0 0 1 16 4 5 2 0 0 1 5 5
0 1 0 0 1 60 100 59 77 100 74 10 5 5 0 3 4 0 0 0 0 0 0 0 0 0 0 0 0 0 0 0 0 0 0 0 15 5 2 0 0 0 0 0 1
24 13 95 66 59 62 100 100 52 47 100 65 42 13 5 2 0 0 0 0 0 0 0 0 0 0 0 0 0 0 0 0 0 0 0 0 0 3 2 0 0 0 0 0 0
30 100 100 91 95 90 100 100 100 100 100 100 100 100 54 5 1 0 0 0 0 0 0 0 0 0 0 0 0 0 0 0 0 0 0 0 0 0 1 0 0 0 0 0 0
77 90 35 25 78 57 100 100 100 100 100 100 100 100 23 5 0 3 3 0 0 0 0 0 0 0 0 0 1 5 2 1 0 2 4 0 0 0 5 5 7 0 2 4 0
100 100 100 100 100 100 68 98 98 100 100 98 54 5 5 5 3 0 0 0 0 0 0 2 5 0 0 5 5 5 82 97 65 55 86 6 4 5 16 98 51 14 4 0 0
100 100 100 100 100 100 100 100 50 61 51 64 10 5 5 4 4 0 0 0 0 1 5 2 4 4 2 3 1 98 98 80 66 94 85 81 48 29 6 86 76 100 92 8 1